カタログに戻る

STARLINK-34270

運用中通信VLEO
NORAD 64355·PAYLOAD·🇺🇸 United States

打ち上げ Jun 13, 2025 から Vandenberg Space Force Base

Loading…

次のパス (今後24時間)

TLE

最新Source: CelesTrak SupGP

元期: Sep 15, 2026, 03:28 UTC

1 64355C 25126M   26258.14493056 -.00030489  00000+0 -10616-2 0  2583
2 64355  70.0004 275.3105 0003523 268.8012 215.6423 15.29564088    11

AllMySatでSTARLINK-34270をリアルタイム追跡

Download on the App Store